Location: Marcé
(47.5801°N, 0.3280°W)
Time: 19:06:38
(UTC+01:00)

Tiros 1 - Pass Details

Date: 30 November 2021
Orbit: 629 x 664 km, 48.4° (Epoch: 26 January)

Event Time Altitude Azimuth Distance (km) Brightness Sun altitude
Rises 02:06:30 0° 286° (WNW) 2,967 - -59.8°
Reaches altitude 10° 02:08:52 10° 282° (WNW) 2,060 - -59.6°
Maximum altitude 02:13:31 55° 205° (SSW) 787 - -59.1°
Drops below altitude 10° 02:18:11 10° 128° (SE) 2,071 - -58.6°
Sets 02:20:34 0° 124° (SE) 2,984 - -58.3°
